Temp
22 22 22 22 22 21 21 21 20 20 20 20 20 19 18 19 19 18 18 18 18 18 19 18 18 18 17 17 17 17 18 19 19 19 19 17 17 17 17 18 17 17 17
22 22 22 22 22 21 21 20 20 20 21 21 21 19 18 18 18 18 18 18 18 18 19 18 18 17 17 17 17 17 18 19 19 19 19 19 17 17 17 18 17 17 17
22 21 22 22 21 21 20 20 20 20 21 20 20 19 17 18 18 18 19 18 18 18 18 18 17 17 17 17 16 17 18 19 19 19 18 19 18 17 17 17 17 17 17
22 21 21 21 21 21 20 20 20 20 20 20 19 18 17 18 18 18 18 18 18 18 18 18 17 17 16 16 16 18 18 19 20 19 19 18 18 17 17 17 18 17 17
23 22 21 21 21 20 20 20 20 20 20 19 19 18 17 17 18 17 17 17 17 17 17 18 17 16 16 16 17 18 19 19 19 20 19 19 18 17 17 17 17 17 17
24 23 21 21 21 20 20 20 20 20 20 19 18 18 17 17 17 17 17 17 17 17 18 18 17 17 17 17 17 18 19 19 20 20 19 19 18 17 17 17 17 16 17
23 22 21 21 20 20 20 20 21 20 20 19 18 17 17 17 17 16 17 17 17 18 17 16 16 17 17 17 18 18 19 19 19 20 19 19 17 17 16 16 16 16 16
23 21 21 21 21 21 20 20 20 20 20 19 18 17 17 16 16 16 17 17 17 17 17 16 16 17 17 18 18 18 19 19 19 19 19 19 17 16 16 16 16 16 15
24 22 20 21 21 21 20 20 19 20 20 19 18 18 17 17 16 16 17 17 17 17 17 17 17 18 18 18 18 18 19 19 19 19 18 18 17 16 16 15 15 15 14
25 22 21 20 20 20 20 20 19 19 19 20 19 19 18 17 17 17 17 17 17 17 17 17 17 18 18 18 18 18 19 19 19 19 19 18 16 16 15 15 15 14 14
24 23 22 21 20 20 20 20 19 19 18 19 19 19 18 18 18 18 17 18 17 17 17 17 17 18 18 18 18 18 19 19 19 19 18 17 16 15 15 15 14 14 13
24 24 23 23 22 22 21 20 20 19 19 19 18 19 19 18 19 18 18 18 17 17 17 17 17 18 18 18 18 18 19 19 19 18 18 17 15 15 14 14 14 13 13
22 23 24 24 23 22 22 21 20 19 19 19 19 20 19 19 19 18 18 18 18 17 17 17 17 18 18 18 19 19 18 19 19 18 17 16 15 14 14 13 13 13 13
21 22 23 24 23 23 22 21 21 20 20 19 20 20 20 20 20 19 19 18 18 17 17 17 17 18 18 18 18 18 18 18 19 18 17 16 15 14 14 13 13 13 12
22 21 21 23 23 23 22 22 22 22 21 21 20 20 20 21 21 20 20 19 19 18 18 18 18 18 18 18 18 18 18 18 18 18 17 16 15 14 14 13 13 12 12
23 22 21 21 21 22 22 22 22 23 22 22 22 22 21 21 21 21 20 19 19 19 19 19 19 19 18 18 18 18 18 18 18 18 16 16 15 14 13 13 13 13 12
24 23 22 21 20 20 20 21 21 22 22 22 21 21 21 21 21 21 20 20 19 20 19 20 19 19 19 18 18 18 18 18 18 17 16 16 15 14 13 13 13 13 12
25 25 24 23 21 20 19 20 20 20 21 21 22 21 21 21 21 20 20 20 20 19 19 19 19 19 19 18 18 18 17 17 17 17 16 15 15 14 13 13 12 12 12
25 25 25 25 23 22 21 21 20 20 19 20 21 22 21 21 20 20 20 20 20 19 19 19 19 19 18 18 18 17 17 17 17 17 16 15 14 14 13 12 12 12 11
25 25 24 24 24 24 23 23 21 20 20 19 19 20 21 21 20 20 20 20 20 19 19 19 19 18 18 18 17 17 17 16 16 16 16 15 15 14 13 13 12 12 11
22 23 23 23 24 24 24 24 23 20 19 19 19 19 20 21 21 20 19 19 19 20 20 19 18 18 17 17 17 17 16 16 15 15 15 15 15 14 13 13 12 12 11
21 22 22 22 22 23 23 23 23 22 21 20 19 19 18 19 20 20 20 19 19 19 19 19 18 17 17 17 16 15 11 13 14 15 15 15 14 14 13 12 12 12 11
18 18 18 19 20 20 20 21 21 21 21 19 18 18 18 18 18 18 19 19 18 18 19 19 18 17 16 16 17 15 11 11 11 13 14 14 14 13 13 12 12 11 11
17 16 17 17 17 18 18 19 19 19 19 20 20 19 19 18 18 18 19 18 18 18 18 18 18 17 16 15 15 16 16 15 11 10 13 13 13 13 13 12 11 11 11
17 16 16 17 17 18 17 17 17 18 18 19 20 20 20 19 19 18 17 18 18 17 17 17 17 17 16 14 14 14 15 14 14 10 8 11 12 13 12 12 11 11 10
17 16 16 16 17 17 17 17 17 17 17 17 18 19 20 20 20 19 18 17 18 17 17 16 16 17 16 15 13 14 14 13 12 11 10 9 10 11 12 12 11 10 10
Height
791 793 797 800 804 807 810 813 815 817 819 820 821 823 824 826 826 827 828 828 829 831 831 833 834 835 836 837 838 838 839 839 840 841 840 840 841 842 842 842 842 843 843
789 794 798 801 805 808 811 814 816 818 820 822 823 824 826 827 828 829 829 830 831 832 833 835 836 837 838 839 839 840 841 841 842 843 843 842 843 843 844 843 843 844 845
791 796 799 802 806 809 811 814 817 820 822 824 825 826 827 828 829 830 830 831 833 834 835 837 838 839 840 840 841 842 842 843 844 844 845 845 845 845 845 844 844 845 845
792 797 800 803 806 809 812 815 818 820 823 824 825 826 828 829 830 831 831 832 834 836 837 838 839 840 841 843 843 843 844 845 845 846 847 848 848 847 847 846 846 847 847
793 798 800 804 807 810 813 816 819 822 823 825 826 827 828 830 832 833 833 835 836 838 838 840 841 842 843 844 845 845 846 846 847 848 848 849 849 850 849 847 848 848 849
794 797 802 805 808 811 814 817 820 823 825 826 827 828 830 832 833 834 835 836 838 839 840 841 843 844 844 845 846 847 847 848 848 849 849 850 851 852 851 850 849 850 850
793 798 802 806 809 812 815 818 821 823 825 827 828 830 831 833 835 835 836 838 839 840 842 843 844 845 845 846 847 848 848 849 850 851 851 851 851 852 853 852 852 852 852
793 799 803 807 810 813 816 818 821 823 826 828 829 831 832 834 835 836 837 839 840 841 843 844 845 846 846 847 847 848 849 849 850 851 851 851 852 853 853 853 853 854 853
796 799 804 808 811 814 816 818 821 824 826 828 830 831 832 833 835 837 838 840 841 843 843 844 845 846 847 848 848 849 850 851 852 853 852 852 853 855 855 854 854 856 855
798 799 804 808 811 813 816 818 821 824 825 828 830 831 832 834 836 836 838 840 841 843 844 845 846 847 848 849 849 850 851 852 852 854 853 853 854 855 856 856 855 857 857
799 800 803 807 810 812 815 817 820 823 825 827 830 831 832 833 835 837 838 840 841 843 844 845 846 846 847 849 850 851 852 852 853 853 853 854 855 857 857 857 857 857 857
799 801 803 806 809 812 814 816 819 821 824 826 828 830 831 833 834 835 837 839 841 843 844 844 845 846 847 848 850 851 852 853 854 852 853 854 856 857 857 858 857 857 859
796 800 803 805 808 811 814 815 817 819 822 825 826 828 829 831 833 834 836 837 840 841 842 844 845 845 847 847 848 851 852 852 853 851 852 854 856 858 858 858 858 858 859
797 798 801 805 807 810 812 814 815 817 820 821 822 824 826 828 830 832 833 835 837 838 840 842 843 845 846 848 848 849 850 851 852 850 851 852 854 857 858 858 858 859 859
795 799 800 801 805 808 810 812 814 816 818 820 820 821 823 826 828 830 831 832 833 834 836 839 841 842 845 847 848 847 847 848 849 847 850 851 852 854 857 857 858 858 859
794 796 798 801 803 805 806 810 812 814 816 818 819 821 823 824 826 827 828 828 831 833 834 835 837 840 841 844 846 846 846 847 848 846 846 848 850 853 855 856 857 858 859
789 792 795 797 800 803 805 807 808 810 812 814 817 819 820 822 824 826 827 827 828 830 832 833 834 835 837 839 841 842 844 844 845 847 845 846 847 850 852 854 855 856 857
787 789 790 792 795 798 802 805 806 807 808 811 814 815 816 818 820 822 823 825 825 827 829 830 830 831 833 835 837 838 840 841 842 844 844 843 845 847 849 851 853 855 855
785 787 788 791 794 794 797 799 801 804 807 808 809 811 812 814 816 818 819 820 821 822 825 827 828 830 830 831 833 835 836 838 839 840 841 841 842 843 845 847 849 852 853
782 785 787 789 791 792 794 794 795 797 800 802 805 806 809 810 810 812 815 816 818 818 820 821 822 825 827 829 831 832 833 835 836 837 838 839 840 841 841 843 845 847 850
780 782 784 785 787 789 790 791 792 791 794 797 797 801 804 806 806 807 807 809 811 812 813 815 818 819 822 825 830 830 830 831 832 833 833 834 835 838 839 840 842 844 846
782 782 783 785 786 787 788 788 789 789 789 790 793 794 797 798 801 801 801 801 804 805 808 810 810 813 815 819 821 826 830 830 827 827 828 829 830 832 835 835 837 839 842
782 782 782 782 782 782 784 784 785 785 786 786 787 788 789 792 795 795 797 797 798 800 801 803 804 806 807 812 813 816 823 821 820 820 821 824 826 827 829 832 833 835 837
784 785 785 784 783 782 782 782 783 783 783 784 783 783 784 785 786 788 790 792 793 794 795 796 798 799 802 803 808 808 807 808 812 818 816 817 820 821 823 826 829 831 832
785 785 785 784 784 783 782 781 781 781 781 781 780 780 780 780 781 782 784 786 787 788 790 790 793 792 793 796 797 798 801 803 804 806 813 812 814 814 816 819 822 827 825
784 784 784 783 783 782 781 780 779 779 779 778 778 778 778 778 777 777 778 779 781 782 783 785 786 787 787 790 790 790 791 795 796 798 801 806 806 809 812 816 817 819 819
Wind_Speed
18 27 23 20 17 15 15 14 13 12 11 11 10 8 8 7 7 7 8 7 9 9 13 15 14 13 13 13 13 12 12 12 14 15 14 14 14 13 12 18 11 12 12
20 25 24 20 17 16 14 13 13 13 12 7 6 4 7 7 7 8 8 8 10 9 12 14 13 13 13 13 12 11 12 14 16 16 18 16 14 13 12 12 12 12 11
22 22 23 20 17 16 14 14 14 14 9 7 4 5 7 7 8 9 6 9 10 9 13 15 13 13 13 12 12 12 14 16 13 10 9 13 14 12 11 11 11 10 10
24 21 19 19 17 15 15 15 14 13 9 7 8 6 7 8 10 10 15 15 12 13 15 13 12 12 12 12 12 12 14 15 13 15 16 13 14 13 10 8 9 10 9
21 22 19 18 18 16 15 15 13 10 8 9 7 9 9 10 11 11 14 16 17 15 14 11 11 12 12 12 11 12 15 13 13 12 7 9 10 14 15 15 8 8 10
20 23 19 17 18 16 16 15 11 9 8 8 7 9 11 11 12 10 11 12 13 12 10 10 10 10 11 10 10 11 12 11 13 9 9 9 10 11 14 18 19 19 15
24 22 21 15 16 15 14 13 11 11 9 6 7 10 11 12 11 10 10 9 10 9 9 10 10 10 9 8 8 8 10 10 11 8 7 7 9 9 11 13 13 12 11
21 19 19 16 13 12 12 12 14 11 8 6 8 11 11 11 10 10 9 10 10 9 9 10 9 8 7 6 6 7 9 7 8 6 4 5 8 11 11 11 11 10 10
17 20 18 17 16 13 11 13 14 11 9 7 8 9 9 9 10 11 10 9 9 9 10 9 7 6 5 4 5 6 8 7 10 7 8 6 10 11 11 11 12 10 11
15 20 18 18 16 15 14 13 13 13 13 9 9 6 7 7 8 10 10 10 10 8 8 7 5 4 4 4 5 7 9 7 5 6 1 5 11 10 9 10 10 9 9
12 16 15 18 15 13 11 14 14 14 13 11 12 8 5 7 8 7 9 7 10 8 7 6 4 4 4 4 5 7 7 5 3 2 4 7 10 9 8 8 9 8 8
13 13 16 18 16 14 15 10 12 14 16 15 16 12 7 11 7 9 9 9 11 10 9 7 5 5 5 4 4 6 4 3 3 4 5 7 8 7 8 8 9 9 9
11 9 14 15 16 16 13 11 12 12 15 17 16 14 13 13 17 15 14 11 13 12 12 10 8 7 7 7 5 4 3 6 5 6 6 6 9 8 7 7 8 9 9
12 12 9 15 14 15 15 13 15 19 16 23 20 19 16 19 18 16 13 10 13 12 12 10 8 8 7 11 9 7 8 7 6 8 9 9 10 8 7 7 8 8 8
18 12 11 13 14 16 16 16 15 17 18 17 19 21 21 20 19 18 19 18 14 17 14 15 15 10 13 12 11 11 9 9 9 8 10 12 13 9 9 9 9 8 8
12 15 17 17 13 20 18 16 16 16 16 17 19 20 20 18 21 20 19 22 21 18 15 17 18 14 13 13 14 12 11 10 10 10 12 13 13 11 10 10 9 9 8
19 19 20 19 19 19 20 19 17 18 15 19 19 19 21 21 19 21 21 19 22 22 16 19 17 18 17 18 16 15 13 13 13 12 11 11 13 14 12 11 11 10 9
10 8 23 24 22 20 21 20 20 22 15 12 18 20 21 23 25 23 22 22 22 21 23 22 22 20 19 19 18 16 16 16 15 15 13 12 13 15 16 14 13 12 11
12 11 11 10 18 23 22 23 22 21 23 22 18 18 21 24 27 28 26 25 21 22 28 25 23 23 22 20 20 18 18 16 18 16 17 14 13 13 14 18 17 16 13
11 17 20 18 18 19 15 23 26 26 25 23 25 23 21 23 26 28 29 27 27 24 27 28 27 25 24 23 20 18 19 17 17 19 19 20 18 15 16 17 20 20 17
9 10 10 10 12 13 19 20 20 26 28 28 26 24 24 26 28 28 31 32 29 31 32 29 27 25 26 23 19 15 14 19 19 20 22 21 23 23 20 19 19 20 20
11 11 9 12 14 16 17 21 19 13 25 31 31 30 32 27 23 30 33 33 35 33 32 32 32 29 28 28 20 12 2 8 21 24 22 25 25 25 25 21 19 18 19
8 7 8 10 12 13 13 14 19 23 15 22 24 27 31 33 34 24 27 33 32 34 34 34 36 35 27 31 31 12 3 5 5 17 29 26 25 26 26 26 23 20 18
5 3 4 5 7 9 15 19 16 16 17 18 20 22 24 25 28 28 36 30 32 33 32 35 36 37 30 29 34 34 16 6 4 2 12 28 27 26 28 27 27 24 23
3 4 5 6 6 6 7 9 13 17 19 22 22 19 23 22 23 25 25 33 28 33 35 33 31 34 40 29 33 28 34 20 13 4 3 9 25 30 27 28 28 27 25
5 6 7 7 8 8 7 7 8 12 15 18 19 18 23 22 23 25 25 27 26 33 30 31 33 36 36 35 33 32 28 20 15 9 2 3 10 17 26 24 26 28 28
Wind_Direction
139 149 149 147 153 143 141 137 136 131 129 126 119 107 105 97 83 74 73 81 96 94 101 101 94 90 92 91 90 85 82 82 82 79 75 83 76 71 68 66 100 78 70
147 153 153 147 152 148 147 144 139 130 128 131 129 127 107 100 86 78 79 93 109 102 110 103 97 90 87 86 85 87 87 86 88 86 65 64 70 65 70 79 75 73 70
139 154 157 159 156 151 151 147 141 133 133 124 115 125 107 101 94 91 77 113 113 110 116 106 94 89 87 87 87 88 90 93 88 87 94 67 55 58 62 73 73 68 65
142 148 157 164 163 158 152 147 142 136 136 137 125 135 113 108 107 98 91 104 110 111 112 109 96 93 92 92 89 86 94 91 74 60 71 77 57 53 51 55 73 67 53
138 149 152 151 153 153 151 149 145 138 130 126 109 120 117 117 115 106 101 104 104 109 111 103 96 97 98 95 90 91 96 86 76 73 67 72 50 61 61 67 75 75 67
142 152 147 149 152 155 152 151 149 137 143 136 114 122 121 124 126 128 117 114 119 114 108 101 102 105 104 100 96 95 104 92 80 77 85 66 64 73 71 68 72 73 76
141 144 149 152 154 157 155 155 142 156 155 162 129 127 127 129 134 139 133 128 120 117 110 107 110 112 110 106 104 100 113 96 92 83 79 59 88 84 75 72 70 70 62
134 137 151 152 161 164 164 162 153 160 160 157 143 135 132 134 139 144 138 138 135 126 118 117 116 116 115 111 110 106 123 110 84 109 40 45 106 101 87 80 75 62 69
132 144 147 157 162 163 166 164 165 170 166 172 155 147 145 138 135 144 145 139 135 132 131 130 124 117 114 112 113 114 123 81 82 109 114 78 113 104 92 83 77 71 73
145 149 153 168 171 177 176 184 179 173 172 186 173 158 157 152 150 150 149 147 136 143 147 143 131 125 124 121 119 122 126 92 74 102 145 78 119 108 96 88 84 78 72
161 155 155 174 174 180 196 193 190 190 188 187 182 183 182 177 167 158 150 165 151 158 167 172 161 151 143 139 136 134 124 93 123 160 165 134 122 111 105 99 100 97 91
172 176 169 178 172 178 182 186 191 193 191 187 197 191 208 187 193 183 186 186 174 180 199 198 190 176 158 128 152 143 122 141 156 189 164 158 137 125 116 109 109 110 102
214 190 184 178 172 177 177 182 174 186 180 192 207 206 207 204 204 191 202 200 199 194 204 217 214 201 173 202 212 169 183 183 186 209 179 183 149 138 128 123 122 120 114
208 217 185 181 182 185 186 191 186 193 189 201 205 206 199 197 198 204 203 214 211 208 205 214 227 216 200 217 208 199 221 187 185 208 197 184 166 155 153 145 141 134 127
182 209 221 187 190 195 197 200 204 199 199 204 211 209 202 201 205 203 214 221 210 207 206 217 217 216 212 228 215 208 209 198 192 216 198 191 194 184 169 163 158 149 142
196 200 204 214 202 210 200 206 205 210 207 208 216 218 219 215 213 214 215 217 203 211 209 220 207 216 225 219 221 214 214 207 200 216 200 197 207 210 184 175 170 164 157
205 202 199 209 214 220 219 213 224 205 212 216 215 220 220 221 223 222 223 233 207 205 220 216 220 218 217 217 219 217 215 209 207 206 216 207 209 208 203 185 182 178 174
254 217 201 201 206 214 217 220 229 233 220 220 222 222 224 221 225 222 225 231 231 229 220 221 215 213 212 216 212 217 217 212 211 206 209 211 210 212 206 193 190 189 183
238 249 261 245 206 209 214 215 217 232 233 229 223 230 231 232 225 228 227 226 237 225 218 225 219 218 214 216 217 221 217 216 213 209 211 210 212 214 209 206 200 194 191
240 239 240 243 244 246 237 223 227 227 230 232 236 230 238 230 225 222 226 229 226 223 217 220 216 215 220 221 216 219 217 218 221 216 215 213 212 211 215 213 212 211 207
309 300 284 270 259 249 241 252 233 219 225 225 234 239 237 239 238 230 225 224 225 227 226 219 213 211 214 214 206 214 211 225 223 224 220 218 217 216 212 215 218 220 215
294 290 279 261 263 259 257 248 256 249 241 242 237 242 239 235 238 240 234 228 224 226 229 223 216 211 215 207 193 155 222 237 234 226 222 218 220 220 215 218 220 222 217
30 352 313 290 274 265 262 263 259 263 280 226 232 242 245 247 251 237 245 237 235 228 229 226 222 214 204 205 206 179 175 216 179 222 224 221 219 218 220 218 218 214 216
51 359 335 322 319 295 271 270 272 275 279 261 251 252 253 250 247 251 244 246 244 241 238 230 227 219 210 201 208 216 224 176 182 193 222 219 218 218 220 218 218 216 212
42 358 338 331 323 310 324 287 274 272 271 273 274 272 254 252 258 259 250 249 250 245 246 240 235 226 218 208 205 216 224 227 223 146 185 208 218 219 220 218 215 217 210
36 1 349 342 339 341 330 319 302 282 278 277 279 281 268 262 258 253 255 250 252 252 253 247 243 238 228 221 219 213 213 209 215 196 168 179 207 218 217 217 212 212 215